| time (UTC) | temp C | wind direction | speed KPH | gust KPH | rain 1hr cm | rain 24hr cm | rain mn cm | humidity % | barometer mb |
| 20260502183038 | 16 | 340 | 1.6 | 6.4 | 0.00 | 0.00 | 0.00 | 24 | 985.7 |
| 20260502182537 | 16 | 321 | 1.6 | 6.4 | 0.00 | 0.00 | 0.00 | 24 | 985.7 |
| 20260502182044 | 16 | 336 | 3.2 | 12.9 | 0.00 | 0.00 | 0.00 | 23 | 985.9 |
| 20260502182037 | 15 | 329 | 3.2 | 9.7 | 0.00 | 0.00 | 0.00 | 23 | 985.8 |
| 20260502181538 | 15 | 300 | 4.8 | 12.9 | 0.00 | 0.00 | 0.00 | 23 | 985.8 |
| 20260502180541 | 16 | 193 | 0.0 | 3.2 | 0.00 | 0.00 | 0.00 | 24 | 986.0 |
| 20260502180537 | 16 | 155 | 0.0 | 4.8 | 0.00 | 0.00 | 0.00 | 22 | 985.9 |
| 20260502164035 | 13 | 349 | 1.6 | 9.7 | 0.00 | 0.00 | 0.00 | 27 | 986.6 |
| 20260502163535 | 13 | 307 | 1.6 | 9.7 | 0.00 | 0.00 | 0.00 | 26 | 986.6 |
| 20260502163033 | 12 | 313 | 1.6 | 9.7 | 0.00 | 0.00 | 0.00 | 27 | 986.6 |
| 20260502162533 | 12 | 351 | 1.6 | 8.0 | 0.00 | 0.00 | 0.00 | 30 | 986.7 |
| 20260502162033 | 12 | 295 | 1.6 | 11.3 | 0.00 | 0.00 | 0.00 | 27 | 986.7 |
| 20260502161533 | 12 | 3 | 3.2 | 11.3 | 0.00 | 0.00 | 0.00 | 29 | 986.7 |
| 20260502161034 | 12 | 15 | 3.2 | 11.3 | 0.00 | 0.00 | 0.00 | 28 | 986.6 |
| 20260502161030 | 12 | 312 | 3.2 | 11.3 | 0.00 | 0.00 | 0.00 | 29 | 986.7 |
| 20260502152025 | 11 | 307 | 1.6 | 9.7 | 0.00 | 0.00 | 0.00 | 33 | 986.9 |
| 20260502151530 | 10 | 312 | 1.6 | 6.4 | 0.00 | 0.03 | 0.00 | 34 | 987.0 |
| 20260502151525 | 11 | 11 | 1.6 | 9.7 | 0.00 | 0.03 | 0.00 | 34 | 986.9 |
| 20260502150526 | 10 | 338 | 1.6 | 6.4 | 0.00 | 0.03 | 0.00 | 33 | 987.0 |
| 20260502130520 | 0 | 171 | 0.0 | 0.0 | 0.00 | 0.03 | 0.00 | 77 | 986.7 |
| 20260502123521 | -1 | 171 | 0.0 | 0.0 | 0.00 | 0.03 | 0.00 | 74 | 986.6 |
| 20260502123025 | -2 | 171 | 0.0 | 0.0 | 0.00 | 0.03 | 0.00 | 76 | 986.5 |
| 20260502123021 | -1 | 171 | 0.0 | 0.0 | 0.00 | 0.03 | 0.00 | 75 | 986.6 |
| 20260502122625 | -2 | 171 | 0.0 | 0.0 | 0.00 | 0.03 | 0.00 | 76 | 986.5 |
| 20260502121520 | -2 | 171 | 0.0 | 0.0 | 0.00 | 0.03 | 0.00 | 76 | 986.4 |
| 20260502121020 | -2 | 171 | 0.0 | 0.0 | 0.00 | 0.03 | 0.00 | 76 | 986.4 |
| 20260502120520 | -2 | 171 | 0.0 | 0.0 | 0.00 | 0.03 | 0.00 | 76 | 986.4 |
| 20260502115521 | -2 | 171 | 0.0 | 0.0 | 0.00 | 0.03 | 0.00 | 75 | 986.3 |
| 20260502115018 | -2 | 171 | 0.0 | 0.0 | 0.00 | 0.03 | 0.00 | 75 | 986.3 |
| 20260502114519 | -2 | 171 | 0.0 | 0.0 | 0.00 | 0.03 | 0.00 | 73 | 986.3 |
| 20260502114018 | -2 | 171 | 0.0 | 0.0 | 0.00 | 0.03 | 0.00 | 73 | 986.3 |
| 20260502113518 | -2 | 171 | 0.0 | 0.0 | 0.00 | 0.03 | 0.00 | 74 | 986.4 |
| 20260502113018 | -2 | 171 | 0.0 | 0.0 | 0.00 | 0.03 | 0.00 | 74 | 986.4 |
| 20260502112523 | -2 | 171 | 0.0 | 0.0 | 0.00 | 0.03 | 0.00 | 74 | 986.4 |
| 20260502112519 | -2 | 171 | 0.0 | 0.0 | 0.00 | 0.03 | 0.00 | 74 | 986.4 |
| 20260502112124 | -2 | 171 | 0.0 | 0.0 | 0.00 | 0.03 | 0.00 | 74 | 986.4 |
| 20260502111018 | -2 | 171 | 0.0 | 0.0 | 0.00 | 0.03 | 0.00 | 74 | 986.4 |
| 20260502110516 | -2 | 171 | 0.0 | 0.0 | 0.00 | 0.03 | 0.00 | 73 | 986.4 |
| 20260502110020 | -2 | 171 | 0.0 | 0.0 | 0.00 | 0.03 | 0.00 | 73 | 986.4 |
| 20260502110016 | -2 | 171 | 0.0 | 0.0 | 0.00 | 0.03 | 0.00 | 73 | 986.4 |
| 20260502105016 | -2 | 171 | 0.0 | 0.0 | 0.00 | 0.03 | 0.00 | 73 | 986.4 |
| 20260502104518 | -2 | 171 | 0.0 | 0.0 | 0.00 | 0.03 | 0.00 | 73 | 986.4 |
| 20260502104122 | -2 | 171 | 0.0 | 0.0 | 0.00 | 0.03 | 0.00 | 74 | 986.4 |
| 20260502104020 | -2 | 171 | 0.0 | 0.0 | 0.00 | 0.03 | 0.00 | 73 | 986.4 |
| 20260502104016 | -2 | 171 | 0.0 | 0.0 | 0.00 | 0.03 | 0.00 | 73 | 986.4 |
| 20260502102514 | -2 | 171 | 0.0 | 0.0 | 0.00 | 0.03 | 0.00 | 74 | 986.4 |
| 20260502102014 | -2 | 171 | 0.0 | 0.0 | 0.00 | 0.03 | 0.00 | 73 | 986.4 |
| 20260502101516 | -1 | 171 | 0.0 | 0.0 | 0.00 | 0.03 | 0.00 | 72 | 986.3 |
| 20260502101512 | -2 | 171 | 0.0 | 0.0 | 0.00 | 0.03 | 0.00 | 72 | 986.3 |
| 20260502100513 | -1 | 171 | 0.0 | 0.0 | 0.00 | 0.03 | 0.00 | 73 | 986.3 |
| 20260502091508 | -1 | 171 | 0.0 | 0.0 | 0.00 | 0.03 | 0.00 | 71 | 986.0 |
| 20260502091008 | -1 | 171 | 0.0 | 0.0 | 0.00 | 0.03 | 0.00 | 71 | 986.0 |
| 20260502090508 | -1 | 171 | 0.0 | 0.0 | 0.00 | 0.03 | 0.00 | 70 | 985.9 |
| 20260502071504 | 0 | 174 | 0.0 | 0.0 | 0.00 | 0.03 | 0.00 | 70 | 986.4 |
| 20260502071004 | 0 | 174 | 0.0 | 0.0 | 0.00 | 0.03 | 0.00 | 70 | 986.4 |
| 20260502070502 | 0 | 174 | 0.0 | 0.0 | 0.00 | 0.03 | 0.00 | 71 | 986.4 |
| 20260502070001 | 0 | 181 | 0.0 | 0.0 | 0.00 | 0.03 | 0.00 | 71 | 986.5 |
| 20260502065502 | 0 | 191 | 0.0 | 0.0 | 0.00 | 0.03 | 0.00 | 71 | 986.5 |
| 20260502065002 | 0 | 190 | 0.0 | 1.6 | 0.00 | 0.03 | 0.00 | 70 | 986.5 |
| 20260502064502 | 0 | 143 | 0.0 | 1.6 | 0.00 | 0.03 | 0.00 | 70 | 986.5 |
| 20260502064002 | 0 | 138 | 0.0 | 0.0 | 0.00 | 0.03 | 0.00 | 70 | 986.5 |
| 20260502063502 | 0 | 138 | 0.0 | 0.0 | 0.00 | 0.05 | 0.00 | 69 | 986.6 |
| 20260502063001 | 0 | 138 | 0.0 | 0.0 | 0.00 | 0.05 | 0.00 | 68 | 986.5 |
| 20260502062502 | 0 | 138 | 0.0 | 0.0 | 0.00 | 0.05 | 0.00 | 68 | 986.5 |
| 20260502062000 | 0 | 138 | 0.0 | 0.0 | 0.00 | 0.05 | 0.00 | 68 | 986.5 |
| 20260502061458 | 0 | 138 | 0.0 | 0.0 | 0.00 | 0.08 | 0.00 | 69 | 986.5 |
| 20260502060958 | 0 | 138 | 0.0 | 0.0 | 0.00 | 0.08 | 0.00 | 70 | 986.4 |
| 20260502060456 | 0 | 138 | 0.0 | 0.0 | 0.00 | 0.08 | 0.00 | 70 | 986.5 |
| 20260502055957 | 0 | 138 | 0.0 | 0.0 | 0.00 | 0.08 | 0.08 | 69 | 986.5 |
| 20260502055453 | 0 | 138 | 0.0 | 0.0 | 0.00 | 0.08 | 0.08 | 68 | 986.5 |
| 20260502054950 | 0 | 138 | 0.0 | 0.0 | 0.00 | 0.10 | 0.08 | 67 | 986.5 |
| 20260502054454 | 0 | 133 | 0.0 | 0.0 | 0.00 | 0.10 | 0.08 | 68 | 986.3 |
| 20260502054448 | 0 | 138 | 0.0 | 1.6 | 0.00 | 0.10 | 0.08 | 67 | 986.5 |
| 20260502053948 | 0 | 138 | 0.0 | 1.6 | 0.00 | 0.10 | 0.08 | 68 | 986.4 |
| 20260502052946 | 0 | 143 | 0.0 | 0.0 | 0.00 | 0.13 | 0.08 | 68 | 986.4 |
| 20260502052447 | 0 | 143 | 0.0 | 0.0 | 0.00 | 0.13 | 0.08 | 70 | 986.3 |
| 20260502051947 | 0 | 171 | 0.0 | 0.0 | 0.00 | 0.13 | 0.08 | 68 | 986.3 |
| 20260502051446 | 0 | 190 | 0.0 | 0.0 | 0.00 | 0.13 | 0.08 | 67 | 986.3 |
| 20260502050947 | 0 | 190 | 0.0 | 0.0 | 0.00 | 0.13 | 0.08 | 68 | 986.3 |
| 20260502050447 | 0 | 190 | 0.0 | 0.0 | 0.00 | 0.13 | 0.08 | 67 | 986.3 |
| 20260502045946 | 0 | 190 | 0.0 | 0.0 | 0.00 | 0.13 | 0.08 | 67 | 986.1 |
| 20260502045446 | 0 | 190 | 0.0 | 0.0 | 0.00 | 0.13 | 0.08 | 66 | 986.3 |
| 20260502044946 | 1 | 224 | 0.0 | 0.0 | 0.00 | 0.13 | 0.08 | 66 | 986.3 |
| 20260502044446 | 1 | 224 | 0.0 | 0.0 | 0.00 | 0.13 | 0.08 | 66 | 986.3 |
| 20260502043946 | 1 | 147 | 0.0 | 0.0 | 0.00 | 0.13 | 0.08 | 65 | 986.0 |
| 20260502043446 | 1 | 166 | 0.0 | 0.0 | 0.00 | 0.13 | 0.08 | 63 | 986.0 |
| 20260502042946 | 1 | 166 | 0.0 | 0.0 | 0.00 | 0.13 | 0.08 | 63 | 986.0 |
| 20260502042446 | 1 | 150 | 0.0 | 0.0 | 0.00 | 0.13 | 0.08 | 61 | 985.9 |
| 20260502041947 | 1 | 150 | 0.0 | 0.0 | 0.00 | 0.13 | 0.08 | 59 | 985.8 |
| 20260502041451 | 2 | 150 | 0.0 | 0.0 | 0.00 | 0.13 | 0.08 | 57 | 985.8 |
| 20260502041446 | 2 | 150 | 0.0 | 0.0 | 0.00 | 0.13 | 0.08 | 58 | 985.8 |
| 20260502041053 | 2 | 150 | 0.0 | 0.0 | 0.00 | 0.13 | 0.08 | 57 | 985.8 |
| 20260502035946 | 2 | 150 | 0.0 | 0.0 | 0.00 | 0.13 | 0.08 | 56 | 985.8 |
| 20260502035451 | 2 | 150 | 0.0 | 0.0 | 0.00 | 0.13 | 0.08 | 54 | 985.6 |
| 20260502035446 | 2 | 150 | 0.0 | 0.0 | 0.00 | 0.13 | 0.08 | 55 | 985.7 |
| 20260502034446 | 3 | 150 | 0.0 | 0.0 | 0.00 | 0.13 | 0.08 | 52 | 985.6 |
| 20260502033945 | 3 | 149 | 0.0 | 0.0 | 0.00 | 0.13 | 0.08 | 52 | 985.6 |
| 20260502033446 | 3 | 156 | 0.0 | 0.0 | 0.00 | 0.13 | 0.08 | 54 | 985.4 |
| 20260502032946 | 3 | 158 | 0.0 | 0.0 | 0.00 | 0.13 | 0.08 | 56 | 985.3 |
| 20260502032446 | 3 | 157 | 0.0 | 0.0 | 0.00 | 0.13 | 0.08 | 56 | 985.2 |
| 20260502031946 | 3 | 157 | 0.0 | 0.0 | 0.00 | 0.13 | 0.08 | 54 | 985.2 |
| 20260502031446 | 3 | 207 | 0.0 | 1.6 | 0.00 | 0.13 | 0.08 | 51 | 985.2 |
| 20260502030946 | 3 | 215 | 0.0 | 1.6 | 0.00 | 0.13 | 0.08 | 51 | 985.2 |
| 20260502030445 | 3 | 159 | 0.0 | 0.0 | 0.00 | 0.13 | 0.08 | 50 | 985.1 |
| 20260502025946 | 4 | 159 | 0.0 | 0.0 | 0.00 | 0.13 | 0.08 | 50 | 985.0 |
| 20260502025446 | 5 | 159 | 0.0 | 0.0 | 0.00 | 0.13 | 0.08 | 47 | 985.0 |
| 20260502024949 | 5 | 159 | 0.0 | 0.0 | 0.00 | 0.13 | 0.08 | 46 | 984.8 |
| 20260502024945 | 5 | 159 | 0.0 | 1.6 | 0.00 | 0.13 | 0.08 | 47 | 984.7 |
| 20260502023944 | 6 | 155 | 0.0 | 1.6 | 0.00 | 0.13 | 0.08 | 44 | 984.7 |
| 20260502023444 | 6 | 150 | 0.0 | 1.6 | 0.00 | 0.13 | 0.08 | 42 | 984.6 |
| 20260502022946 | 7 | 134 | 0.0 | 1.6 | 0.00 | 0.13 | 0.08 | 38 | 984.5 |
| 20260502022444 | 7 | 193 | 0.0 | 0.0 | 0.00 | 0.13 | 0.08 | 36 | 984.5 |
| 20260502021942 | 7 | 193 | 0.0 | 0.0 | 0.00 | 0.13 | 0.08 | 36 | 984.4 |
| 20260502021444 | 7 | 211 | 0.0 | 0.0 | 0.00 | 0.13 | 0.08 | 35 | 984.3 |
| 20260502021440 | 7 | 193 | 0.0 | 0.0 | 0.00 | 0.13 | 0.08 | 37 | 984.4 |
| 20260502020440 | 8 | 290 | 0.0 | 0.0 | 0.00 | 0.13 | 0.08 | 35 | 984.3 |
| 20260502015941 | 8 | 290 | 0.0 | 0.0 | 0.00 | 0.13 | 0.08 | 31 | 984.3 |
| 20260502015441 | 8 | 290 | 0.0 | 0.0 | 0.00 | 0.13 | 0.08 | 31 | 984.3 |
| 20260502014944 | 9 | 290 | 0.0 | 0.0 | 0.00 | 0.13 | 0.08 | 28 | 984.1 |
| 20260502014940 | 9 | 290 | 0.0 | 0.0 | 0.00 | 0.13 | 0.08 | 29 | 984.1 |
| 20260502013940 | 10 | 290 | 0.0 | 0.0 | 0.00 | 0.13 | 0.08 | 28 | 984.1 |
| 20260502013445 | 10 | 309 | 0.0 | 8.0 | 0.00 | 0.13 | 0.08 | 27 | 984.0 |
| 20260502013440 | 10 | 253 | 0.0 | 0.0 | 0.00 | 0.13 | 0.08 | 26 | 984.0 |
| 20260502012439 | 10 | 313 | 0.0 | 8.0 | 0.00 | 0.13 | 0.08 | 25 | 984.0 |
| 20260502011937 | 11 | 4 | 0.0 | 3.2 | 0.00 | 0.13 | 0.08 | 25 | 983.9 |
| 20260502011439 | 11 | 322 | 0.0 | 6.4 | 0.00 | 0.13 | 0.08 | 22 | 983.9 |
| 20260502010943 | 11 | 327 | 1.6 | 8.0 | 0.00 | 0.13 | 0.08 | 22 | 983.8 |
| 20260502010938 | 11 | 15 | 1.6 | 8.0 | 0.00 | 0.13 | 0.08 | 23 | 983.8 |
| 20260502010438 | 11 | 352 | 1.6 | 8.0 | 0.00 | 0.13 | 0.08 | 22 | 983.8 |
| 20260502005438 | 11 | 338 | 3.2 | 8.0 | 0.00 | 0.13 | 0.08 | 22 | 983.8 |
| 20260502004938 | 12 | 319 | 3.2 | 8.0 | 0.00 | 0.13 | 0.08 | 22 | 983.8 |
| 20260502004438 | 12 | 21 | 4.8 | 12.9 | 0.00 | 0.13 | 0.08 | 21 | 983.8 |
| 20260502003938 | 12 | 316 | 3.2 | 12.9 | 0.00 | 0.13 | 0.08 | 21 | 983.9 |
| 20260502003436 | 13 | 9 | 1.6 | 12.9 | 0.00 | 0.13 | 0.08 | 21 | 983.8 |
| 20260502002936 | 13 | 270 | 0.0 | 4.8 | 0.00 | 0.13 | 0.08 | 23 | 983.8 |
| 20260502002436 | 13 | 354 | 1.6 | 4.8 | 0.00 | 0.13 | 0.08 | 22 | 983.8 |
| 20260502001938 | 13 | 316 | 3.2 | 11.3 | 0.00 | 0.13 | 0.08 | 23 | 983.8 |
| 20260502001437 | 12 | 349 | 4.8 | 12.9 | 0.00 | 0.13 | 0.08 | 23 | 983.8 |
| 20260502000943 | 12 | 328 | 6.4 | 12.9 | 0.00 | 0.13 | 0.08 | 23 | 983.8 |
| 20260502000436 | 12 | 333 | 4.8 | 14.5 | 0.00 | 0.13 | 0.08 | 24 | 983.7 |
| 20260501235934 | 12 | 13 | 3.2 | 14.5 | 0.00 | 0.13 | 0.08 | 22 | 983.7 |
| 20260501235434 | 12 | 329 | 1.6 | 9.7 | 0.00 | 0.13 | 0.08 | 27 | 983.5 |
| 20260501234934 | 12 | 331 | 3.2 | 9.7 | 0.00 | 0.13 | 0.08 | 25 | 983.5 |
| 20260501234432 | 12 | 359 | 4.8 | 11.3 | 0.00 | 0.13 | 0.08 | 25 | 983.5 |
| 20260501233932 | 12 | 356 | 6.4 | 25.7 | 0.00 | 0.13 | 0.08 | 26 | 983.5 |
| 20260501233432 | 12 | 2 | 6.4 | 25.7 | 0.00 | 0.13 | 0.08 | 26 | 983.5 |
| 20260501232931 | 12 | 7 | 4.8 | 16.1 | 0.00 | 0.13 | 0.08 | 26 | 983.5 |
| 20260501232432 | 12 | 335 | 4.8 | 16.1 | 0.00 | 0.13 | 0.08 | 26 | 983.5 |
| 20260501231931 | 12 | 274 | 4.8 | 16.1 | 0.00 | 0.13 | 0.08 | 25 | 983.4 |
| 20260501231432 | 13 | 348 | 3.2 | 16.1 | 0.00 | 0.13 | 0.08 | 24 | 983.4 |
| 20260501230932 | 12 | 29 | 3.2 | 11.3 | 0.00 | 0.13 | 0.08 | 25 | 983.4 |
| 20260501230432 | 12 | 345 | 6.4 | 17.7 | 0.00 | 0.13 | 0.08 | 26 | 983.5 |
| 20260501225930 | 12 | 323 | 6.4 | 17.7 | 0.00 | 0.15 | 0.08 | 26 | 983.4 |
| 20260501225429 | 12 | 331 | 4.8 | 14.5 | 0.00 | 0.15 | 0.08 | 29 | 983.4 |
| 20260501224930 | 12 | 323 | 6.4 | 14.5 | 0.00 | 0.15 | 0.08 | 28 | 983.5 |
| 20260501224434 | 12 | 328 | 3.2 | 11.3 | 0.00 | 0.15 | 0.08 | 28 | 983.3 |
| 20260501224430 | 12 | 322 | 3.2 | 12.9 | 0.00 | 0.15 | 0.08 | 27 | 983.4 |
| 20260501223430 | 12 | 299 | 3.2 | 12.9 | 0.00 | 0.15 | 0.08 | 28 | 983.3 |
| 20260501222934 | 12 | 13 | 4.8 | 16.1 | 0.00 | 0.18 | 0.08 | 28 | 983.4 |
| 20260501222930 | 12 | 14 | 3.2 | 12.9 | 0.00 | 0.18 | 0.08 | 29 | 983.3 |
| 20260501222535 | 12 | 358 | 8.0 | 17.7 | 0.00 | 0.18 | 0.08 | 28 | 983.4 |
| 20260501221434 | 13 | 317 | 1.6 | 14.5 | 0.00 | 0.20 | 0.08 | 31 | 983.3 |
| 20260501221430 | 12 | 333 | 6.4 | 17.7 | 0.00 | 0.18 | 0.08 | 31 | 983.4 |
| 20260501220433 | 11 | 320 | 3.2 | 6.4 | 0.00 | 0.20 | 0.08 | 33 | 983.5 |
| 20260501220429 | 12 | 127 | 1.6 | 6.4 | 0.00 | 0.20 | 0.08 | 31 | 983.4 |
| 20260501215429 | 11 | 314 | 4.8 | 12.9 | 0.00 | 0.20 | 0.08 | 30 | 983.4 |
| 20260501214935 | 12 | 23 | 1.6 | 9.7 | 0.00 | 0.20 | 0.08 | 34 | 983.7 |
| 20260501214929 | 11 | 355 | 3.2 | 12.9 | 0.00 | 0.20 | 0.08 | 29 | 983.5 |
| 20260501214430 | 12 | 22 | 1.6 | 11.3 | 0.00 | 0.20 | 0.08 | 33 | 983.5 |
| 20260501213431 | 11 | 332 | 0.0 | 4.8 | 0.00 | 0.20 | 0.08 | 34 | 983.7 |
| 20260501212929 | 11 | 245 | 0.0 | 3.2 | 0.00 | 0.23 | 0.08 | 37 | 983.7 |
| 20260501212431 | 11 | 147 | 1.6 | 8.0 | 0.00 | 0.23 | 0.08 | 35 | 983.8 |
| 20260501211930 | 12 | 338 | 1.6 | 8.0 | 0.00 | 0.23 | 0.08 | 33 | 983.8 |
| 20260501211435 | 12 | 314 | 0.0 | 9.7 | 0.00 | 0.23 | 0.08 | 35 | 984.0 |
| 20260501211430 | 12 | 354 | 0.0 | 3.2 | 0.00 | 0.23 | 0.08 | 35 | 983.8 |
| 20260501210431 | 12 | 321 | 1.6 | 9.7 | 0.00 | 0.25 | 0.08 | 36 | 984.0 |
| 20260501205931 | 12 | 1 | 1.6 | 6.4 | 0.00 | 0.25 | 0.08 | 35 | 984.0 |
| 20260501205431 | 12 | 343 | 1.6 | 6.4 | 0.00 | 0.25 | 0.08 | 36 | 984.0 |
| 20260501204935 | 11 | 356 | 1.6 | 8.0 | 0.00 | 0.25 | 0.08 | 36 | 984.0 |
| 20260501204930 | 12 | 275 | 1.6 | 6.4 | 0.00 | 0.25 | 0.08 | 37 | 984.0 |
| 20260501203930 | 11 | 318 | 1.6 | 8.0 | 0.00 | 0.25 | 0.08 | 36 | 984.0 |
| 20260501203431 | 11 | 321 | 1.6 | 6.4 | 0.00 | 0.25 | 0.08 | 34 | 984.1 |
| 20260501202931 | 11 | 323 | 1.6 | 6.4 | 0.00 | 0.25 | 0.08 | 37 | 984.1 |
| 20260501202431 | 11 | 126 | 0.0 | 6.4 | 0.00 | 0.25 | 0.08 | 36 | 984.1 |
| 20260501201935 | 11 | 305 | 3.2 | 9.7 | 0.00 | 0.25 | 0.08 | 36 | 984.3 |
| 20260501201931 | 11 | 297 | 1.6 | 9.7 | 0.00 | 0.25 | 0.08 | 36 | 984.1 |
| 20260501200931 | 12 | 301 | 3.2 | 9.7 | 0.00 | 0.25 | 0.08 | 36 | 984.3 |
| 20260501200430 | 11 | 81 | 3.2 | 9.7 | 0.00 | 0.25 | 0.08 | 35 | 984.3 |
| 20260501195930 | 12 | 66 | 3.2 | 9.7 | 0.00 | 0.25 | 0.08 | 36 | 984.4 |
| 20260501195430 | 11 | 209 | 1.6 | 9.7 | 0.00 | 0.25 | 0.08 | 39 | 984.3 |
| 20260501194930 | 11 | 210 | 1.6 | 8.0 | 0.00 | 0.25 | 0.08 | 39 | 984.4 |
| 20260501194435 | 11 | 146 | 1.6 | 4.8 | 0.00 | 0.28 | 0.08 | 43 | 984.3 |
| 20260501194430 | 12 | 24 | 0.0 | 3.2 | 0.00 | 0.25 | 0.08 | 36 | 984.3 |
| 20260501193430 | 10 | 137 | 1.6 | 6.4 | 0.00 | 0.28 | 0.08 | 39 | 984.4 |
| 20260501192931 | 10 | 312 | 1.6 | 9.7 | 0.00 | 0.28 | 0.08 | 38 | 984.4 |
| 20260501192429 | 10 | 326 | 3.2 | 9.7 | 0.00 | 0.28 | 0.08 | 37 | 984.5 |
| 20260501191929 | 11 | 325 | 1.6 | 8.0 | 0.00 | 0.30 | 0.08 | 37 | 984.4 |
| 20260501191429 | 12 | 342 | 0.0 | 6.4 | 0.00 | 0.30 | 0.08 | 40 | 984.4 |
| 20260501190928 | 11 | 353 | 0.0 | 6.4 | 0.00 | 0.30 | 0.08 | 43 | 984.5 |
| 20260501190427 | 10 | 40 | 1.6 | 6.4 | 0.00 | 0.30 | 0.08 | 44 | 984.5 |
| 20260501185928 | 10 | 200 | 1.6 | 6.4 | 0.00 | 0.33 | 0.08 | 43 | 984.6 |
| 20260501185431 | 9 | 343 | 1.6 | 9.7 | 0.00 | 0.36 | 0.08 | 44 | 984.7 |
| 20260501185427 | 10 | 8 | 1.6 | 8.0 | 0.00 | 0.33 | 0.08 | 41 | 984.6 |
| 20260501185033 | 9 | 293 | 1.6 | 8.0 | 0.00 | 0.38 | 0.08 | 43 | 984.7 |
| 20260501184537 | 9 | 320 | 1.6 | 12.9 | 0.00 | 0.38 | 0.08 | 41 | 984.6 |
| 20260501184427 | 9 | 328 | 1.6 | 9.7 | 0.00 | 0.36 | 0.08 | 42 | 984.7 |